Simultaneous Nadir Overpasses (SNOs) Predictions

Prediction of SNOs between GOES-16 and LANDSAT-8 Satellite Orbit:

Table of predicted SNOs for the next 14.0 days since TLE Epoch: 8/24/2019
Index Date Time (GOES-16) GOES-16 Lat,Lon LANDSAT-8 Lat,Lon Distance(km) Time Diff (sec)
1 08/25/2019 03:03:42 -0.02, -75.21 0.40, -73.18 230.45 80
2 08/25/2019 15:27:37 0.02, -75.22 0.67, -78.34 353.82 80
3 08/27/2019 15:15:26 0.02, -75.23 0.05, -75.38 16.93 80
4 08/29/2019 15:00:35 0.02, -75.24 -0.57, -72.42 320.35 80
5 08/30/2019 03:24:39 -0.03, -75.23 -0.56, -77.61 271.28 80
6 09/01/2019 03:09:49 -0.02, -75.24 0.13, -74.66 66.94 80
7 09/03/2019 02:57:38 -0.02, -75.27 0.75, -71.70 405.77 80
8 09/03/2019 15:21:33 0.03, -75.29 0.38, -76.85 177.83 80
9 09/05/2019 15:06:42 0.03, -75.32 -0.25, -73.89 161.81 80
10 09/06/2019 03:30:47 -0.04, -75.31 -0.81, -79.09 429.23 80




NCC Satellite Simultaneous Nadir Overpasses (SNOs) Prediction Service
